[[{"header":{"parameterUnit":"m.s-1","parameterCategory":1,"la1":30.2991,"la2":30.254,"lo1":-89.0895,"lo2":-89.0444,"dy":0.0017,"dx":0.0017,"nx":28,"ny":28,"refTime":"2024-08-22T03:00:00:Z","depth":0,"parameterNumber":2,"parameterNumberName":"U-component_of_WINDS"},"data":[0,0,0,0,0,0,0,0,0,0,0,0,0,0,0,0,0,0,0,0,0,0,0,0,0,0,0,0,0,0,0,0,0,0,0,0,0,0,0,0,0,0,0,0,0,0,0,0,0,0,0,0,0,0,0,0,0,0,-4.0733,-4.0732,0,-4.0722,-4.0722,-4.0722,-4.0543,-4.0538,-4.0533,-4.0529,-4.0525,-4.0529,-4.0533,0,0,0,0,0,0,0,0,0,0,0,0,0,-4.0603,-4.0607,-4.0733,-4.0732,-4.0732,-4.0722,-4.0722,-4.0722,-4.0543,-4.0538,-4.0532,-4.0527,-4.0523,-4.0528,-4.0533,0,0,0,0,0,0,0,0,0,0,0,0,0,-4.0633,-4.0608,-4.0733,-4.0642,-4.0634,-4.0722,-4.0722,-4.0721,-4.0544,-4.0538,-4.0531,-4.0524,-4.0522,-4.0528,-4.0534,-4.071,0,0,-4.0553,-4.0556,0,0,0,0,0,0,0,0,-4.0632,-4.0638,-4.0655,-4.0648,-4.0639,-4.0626,-4.0674,-4.0718,-4.0546,-4.0579,-4.0529,-4.0521,-4.0564,-4.0567,-4.058,-4.071,-4.071,-4.0553,-4.0557,-4.056,-4.0562,0,0,0,0,0,0,0,-4.063,-4.0638,-4.0728,-4.0656,-4.0646,-4.0603,-4.06,-4.0682,-4.0611,-4.0575,-4.0562,-4.0563,-4.0559,-4.0574,-4.0579,-4.0709,-4.0553,-4.0559,-4.0563,-4.0565,-4.0982,-4.0989,0,0,0,0,0,0,-4.064,-4.0637,-4.0729,-4.0728,-4.0618,-4.0611,-4.0607,-4.0638,-4.0609,-4.0598,-4.0569,-4.0555,-4.0567,-4.0572,-4.0578,-4.0781,-4.056,-4.0566,-4.0569,-4.0975,-4.0984,-4.0992,0,0,0,0,0,0,-4.0637,-4.0649,-4.0729,-4.0679,-4.0686,-4.0621,-4.0656,-4.0641,-4.0656,-4.0604,-4.0591,-4.0598,-4.0562,-4.0569,-4.0678,-4.0778,-4.0568,-4.0574,-4.0966,-4.0978,-4.0988,-4.119,0,0,0,0,0,0,-4.0635,-4.065,-4.0715,-4.0682,-4.0689,-4.0828,-4.0662,-4.0646,-4.0667,-4.0648,-4.0628,-4.0618,-4.0557,-4.0669,-4.0684,-4.0783,-4.0579,-4.0957,-4.0971,-4.0984,-4.1174,-4.1207,-4.1235,0,0,0,0,0,-4.0631,-4.0774,-4.0719,-4.0731,-4.0769,-4.0834,-4.0839,-4.0764,-4.0676,-4.0741,-4.0707,-4.0618,-4.0765,-4.0682,-4.0697,-4.08,-4.095,-4.0967,-4.0983,-4.1161,-4.12,-4.1234,0,0,0,0,0,0,-4.0823,-4.0768,-4.0707,-4.0843,-4.0845,-4.0804,-4.0884,-4.0809,-4.0837,-4.0819,-4.0727,-4.0724,-4.0847,-4.0834,-4.0742,-4.0968,-4.0842,-4.0863,-4.0972,-4.1009,-4.1039,-4.1039,-4.0584,0,0,0,0,0,-4.0881,-4.0937,-4.0887,-4.1012,-4.1016,-4.0951,-4.0976,-4.0918,-4.0917,-4.0918,-4.0892,-4.0896,-4.0942,-4.0975,-4.1015,-4.1172,-4.1165,-4.125,-4.128,-4.1305,-4.1324,-4.1405,-4.1442,-4.1046,-4.1046,-4.1046,0,0,-4.1002,-4.0979,-4.1021,-4.105,-4.1044,-4.1106,-4.0952,-4.1024,-4.1069,-4.0929,-4.1029,-4.1011,-4.1009,-4.1142,-4.12,-4.1135,-4.1431,-4.1326,-4.1346,-4.1351,-4.1426,-4.1463,-4.1497,-4.1057,-4.1055,-4.1054,0,0,-4.1254,-4.1242,-4.1344,-4.1341,-4.1334,-4.1289,-4.1314,-4.1285,-4.1267,-4.1365,-4.1261,-4.1314,-4.1397,-4.1399,-4.1412,-4.1664,-4.1583,-4.168,-4.1838,-4.1918,-4.1949,-4.1976,-4.2066,-4.2099,-4.1699,-4.1699,-4.17,0,-4.1406,-4.1492,-4.1408,-4.1485,-4.1502,-4.1375,-4.1479,-4.1481,-4.1489,-4.1503,-4.1431,-4.153,-4.1521,-4.1652,-4.1713,-4.1728,-4.1754,-4.1682,-4.1951,-4.1977,-4.2002,-4.2086,-4.212,-4.1711,-4.171,-4.1708,-4.1707,0,-4.1679,-4.1741,-4.1825,-4.1832,-4.1858,-4.1949,-4.1879,-4.1916,-4.1856,-4.182,-4.1922,-4.1906,-4.194,-4.1967,-4.191,-4.2091,-4.2051,-4.1967,-4.1838,-4.2052,-4.213,-4.2162,-4.1728,-4.1724,-4.172,-4.1717,0,0,-4.2052,-4.201,-4.2042,-4.2044,-4.2026,-4.2073,-4.2158,-4.2189,-4.2222,-4.2232,-4.2302,-4.2374,-4.2295,-4.2309,-4.2252,-4.2322,-4.2523,-4.2228,-4.2227,-4.2283,-4.272,-4.2783,-4.2822,-4.2469,-4.2475,-4.2479,-4.272,0,-4.2294,-4.2435,-4.2361,-4.2513,-4.2569,-4.2449,-4.2524,-4.2522,-4.2491,-4.2535,-4.2501,-4.2553,-4.2445,-4.2453,-4.2517,-4.2485,-4.2609,-4.2466,-4.2534,-4.2537,-4.2537,-4.2863,-4.293,-4.3158,-4.275,-4.2755,-4.2759,0,-4.2595,-4.2614,-4.2771,-4.2742,-4.2762,-4.283,-4.2852,-4.2896,-4.2892,-4.2864,-4.288,-4.2805,-4.2888,-4.2761,-4.2875,-4.278,-4.2803,-4.2792,-4.2798,-4.2801,-4.2661,-4.2874,-4.3229,-4.3263,-4.2806,-4.2802,-4.2799,0,-4.285,-4.2916,-4.3017,-4.3023,-4.2991,-4.3042,-4.3031,-4.302,-4.3043,-4.3063,-4.3077,-4.3109,-4.3126,-4.3152,-4.3089,-4.3002,-4.3211,-4.3079,-4.3191,-4.3193,-4.324,-4.3238,-4.3603,-4.3258,-4.3257,-4.3256,-4.3256,0,-4.3128,-4.3228,-4.3131,-4.3194,-4.3303,-4.3218,-4.3329,-4.3306,-4.3297,-4.3354,-4.3254,-4.3311,-4.3223,-4.3272,-4.3223,-4.3324,-4.3333,-4.3314,-4.33,-4.3322,-4.3325,-4.3336,-4.3318,-4.3265,-4.3263,-4.3262,-4.326,0,-4.3431,-4.337,-4.3473,-4.3434,-4.3427,-4.3509,-4.3476,-4.3533,-4.3495,-4.3568,-4.3581,-4.3521,-4.3573,-4.3512,-4.3559,-4.3526,-4.3663,-4.3626,-4.3664,-4.3653,-4.3769,-4.3758,-4.4153,-4.42,-4.3826,-4.3829,-4.3832,0,-4.3611,-4.3685,-4.3654,-4.3683,-4.3678,-4.3729,-4.3751,-4.367,-4.3698,-4.3698,-4.3756,-4.3798,-4.3828,-4.3916,-4.3878,-4.3914,-4.3876,-4.4012,-4.3881,-4.3901,-4.3877,-4.3873,-4.388,-4.4039,-4.4043,-4.4047,-4.405,0,-4.3938,-4.3904,-4.3939,-4.3964,-4.3993,-4.4009,-4.4018,-4.4049,-4.3965,-4.4002,-4.4051,-4.4074,-4.4121,-4.4165,-4.4189,-4.418,-4.4103,-4.4091,-4.4119,-4.4143,-4.4161,-4.4152,-4.3736,-4.4083,-4.4079,-4.4077,-4.4075,-4.4074,-4.4184,-4.4244,-4.423,-4.4273,-4.4271,-4.4281,-4.4332,-4.4299,-4.4339,-4.4369,-4.432,-4.4383,-4.4377,-4.4401,-4.4401,-4.4451,-4.4392,-4.4433,-4.4443,-4.4454,-4.4471,-4.4154,-4.4455,-4.4454,-4.4453,-4.4452,-4.4452,0,-4.4504,-4.449,-4.4529,-4.4544,-4.4578,-4.4498,-4.4504,-4.4538,-4.4594,-4.4594,-4.4624,-4.4682,-4.4724,-4.4689,-4.4724,-4.477,-4.4735,-4.4782,-4.4777,-4.4776,-4.4521,-4.4493,-4.481,-4.481,-4.4809,-4.4809,-4.4809,-4.4809,-4.4675,-4.4771,-4.4736,-4.4831,-4.4815,-4.4874,-4.4884,-4.4894,-4.4893,-4.4961,-4.4994,-4.4971,-4.4957,-4.499,-4.5025,-4.5014,-4.5031,-4.5091,-4.5068,-4.483,-4.4795,-4.4761,-4.4734,-4.5096,-4.5096,-4.5318,-4.532,-4.5322]},{"header":{"parameterUnit":"m.s-1","parameterCategory":1,"la1":30.2991,"la2":30.254,"lo1":-89.0895,"lo2":-89.0444,"dy":0.0017,"dx":0.0017,"nx":28,"ny":28,"refTime":"2024-08-22T03:00:00:Z","depth":0,"parameterNumber":3,"parameterNumberName":"V-component_of_WINDS"},"data":[0,0,0,0,0,0,0,0,0,0,0,0,0,0,0,0,0,0,0,0,0,0,0,0,0,0,0,0,0,0,0,0,0,0,0,0,0,0,0,0,0,0,0,0,0,0,0,0,0,0,0,0,0,0,0,0,0,0,-1.904,-1.9041,0,-1.9108,-1.9109,-1.9109,-1.9141,-1.9141,-1.9141,-1.9141,-1.9204,-1.9205,-1.9207,0,0,0,0,0,0,0,0,0,0,0,0,0,-1.8932,-1.8934,-1.904,-1.9041,-1.9042,-1.9108,-1.9109,-1.9109,-1.9141,-1.9141,-1.9141,-1.9141,-1.9203,-1.9205,-1.9207,0,0,0,0,0,0,0,0,0,0,0,0,0,-1.8987,-1.8935,-1.904,-1.9066,-1.9068,-1.9107,-1.9109,-1.911,-1.9141,-1.9141,-1.9141,-1.914,-1.9202,-1.9205,-1.9207,-1.9224,0,0,-1.9215,-1.9216,0,0,0,0,0,0,0,0,-1.8984,-1.8991,-1.9061,-1.9064,-1.9067,-1.9116,-1.9094,-1.9148,-1.9141,-1.9113,-1.9141,-1.914,-1.9174,-1.9179,-1.9191,-1.9227,-1.923,-1.9215,-1.9217,-1.9218,-1.9219,0,0,0,0,0,0,0,-1.898,-1.8988,-1.9067,-1.9062,-1.9066,-1.9072,-1.9079,-1.9104,-1.9143,-1.9115,-1.9118,-1.9126,-1.9176,-1.9189,-1.9193,-1.9231,-1.9215,-1.9218,-1.9219,-1.922,-1.9283,-1.9283,0,0,0,0,0,0,-1.8973,-1.8985,-1.9065,-1.9069,-1.9025,-1.9074,-1.9082,-1.91,-1.9143,-1.9149,-1.9126,-1.9127,-1.9185,-1.919,-1.9195,-1.9218,-1.9218,-1.922,-1.9222,-1.9283,-1.9283,-1.9283,0,0,0,0,0,0,-1.8971,-1.898,-1.9062,-1.9028,-1.9039,-1.9076,-1.9095,-1.9102,-1.9115,-1.9151,-1.9157,-1.9133,-1.9185,-1.9192,-1.9217,-1.9221,-1.9222,-1.9224,-1.9283,-1.9283,-1.9283,-1.9264,0,0,0,0,0,0,-1.8967,-1.8979,-1.8987,-1.9028,-1.904,-1.9084,-1.9096,-1.9103,-1.912,-1.9122,-1.9159,-1.9165,-1.9185,-1.9213,-1.922,-1.9224,-1.9226,-1.9283,-1.9283,-1.9283,-1.9264,-1.9263,-1.9262,0,0,0,0,0,-1.8963,-1.8977,-1.8987,-1.8997,-1.9052,-1.9084,-1.9091,-1.9117,-1.912,-1.9128,-1.9151,-1.9163,-1.9219,-1.9216,-1.9223,-1.9229,-1.9283,-1.9283,-1.9283,-1.9265,-1.9263,-1.9262,0,0,0,0,0,0,-1.8934,-1.8983,-1.8995,-1.9023,-1.9049,-1.909,-1.91,-1.9115,-1.9139,-1.914,-1.9168,-1.9176,-1.9199,-1.9216,-1.9211,-1.9247,-1.9252,-1.9254,-1.9235,-1.9234,-1.9233,-1.9229,-1.9228,0,0,0,0,0,-1.8931,-1.8956,-1.8996,-1.9017,-1.903,-1.9063,-1.9078,-1.9095,-1.9123,-1.9134,-1.9159,-1.9184,-1.9207,-1.9221,-1.9245,-1.9267,-1.9275,-1.9274,-1.9273,-1.9272,-1.9273,-1.9286,-1.9286,-1.9284,-1.9284,-1.9284,0,0,-1.8925,-1.8955,-1.8968,-1.9012,-1.9035,-1.9058,-1.9072,-1.9095,-1.9112,-1.9137,-1.9163,-1.9182,-1.9211,-1.9235,-1.9247,-1.925,-1.9276,-1.9273,-1.9272,-1.9273,-1.9286,-1.9287,-1.9287,-1.9285,-1.9285,-1.9285,0,0,-1.8925,-1.895,-1.8971,-1.8994,-1.9029,-1.905,-1.9055,-1.9094,-1.9108,-1.9135,-1.9154,-1.9173,-1.9212,-1.9233,-1.9248,-1.9257,-1.9269,-1.9263,-1.9258,-1.927,-1.9271,-1.9271,-1.9274,-1.9274,-1.9264,-1.9264,-1.9264,0,-1.8912,-1.895,-1.8979,-1.9002,-1.902,-1.9046,-1.9065,-1.9085,-1.9125,-1.9136,-1.914,-1.9191,-1.9212,-1.9241,-1.9243,-1.9255,-1.926,-1.9259,-1.9269,-1.9269,-1.927,-1.9273,-1.9274,-1.9263,-1.9263,-1.9263,-1.9264,0,-1.8932,-1.8958,-1.8969,-1.901,-1.9029,-1.905,-1.9081,-1.9097,-1.9112,-1.9133,-1.9159,-1.9186,-1.9216,-1.9224,-1.9238,-1.9255,-1.9256,-1.9264,-1.9269,-1.9269,-1.9272,-1.9273,-1.9262,-1.9262,-1.9263,-1.9263,0,0,-1.8916,-1.8973,-1.8977,-1.8995,-1.9036,-1.9055,-1.9077,-1.9108,-1.9121,-1.9147,-1.9165,-1.9198,-1.9206,-1.9223,-1.924,-1.9251,-1.9255,-1.9257,-1.9258,-1.9256,-1.9275,-1.9269,-1.927,-1.9264,-1.9264,-1.9265,-1.9273,0,-1.8922,-1.8965,-1.8991,-1.9022,-1.9046,-1.907,-1.9089,-1.9114,-1.9134,-1.9155,-1.9176,-1.92,-1.9208,-1.9219,-1.923,-1.9252,-1.926,-1.9252,-1.928,-1.928,-1.9272,-1.9272,-1.9266,-1.9272,-1.9274,-1.9274,-1.9274,0,-1.8935,-1.8963,-1.8997,-1.9036,-1.9047,-1.9063,-1.9094,-1.9114,-1.9143,-1.9157,-1.9177,-1.9194,-1.9216,-1.922,-1.925,-1.9244,-1.9257,-1.9269,-1.927,-1.9274,-1.9278,-1.9275,-1.9275,-1.9275,-1.9277,-1.9276,-1.9276,0,-1.892,-1.8966,-1.8993,-1.9008,-1.9053,-1.9064,-1.9083,-1.9113,-1.913,-1.9155,-1.9166,-1.9193,-1.9208,-1.9228,-1.9251,-1.9252,-1.9279,-1.9284,-1.929,-1.9289,-1.9294,-1.9294,-1.9296,-1.9302,-1.9302,-1.9302,-1.9302,0,-1.8924,-1.8944,-1.8987,-1.9003,-1.9026,-1.9055,-1.9076,-1.9096,-1.9122,-1.9142,-1.9163,-1.918,-1.9211,-1.9231,-1.9249,-1.9271,-1.9277,-1.9288,-1.9293,-1.9286,-1.9285,-1.9295,-1.9295,-1.9302,-1.9302,-1.9302,-1.9302,0,-1.8911,-1.8941,-1.8972,-1.9013,-1.9023,-1.9038,-1.9072,-1.9088,-1.9109,-1.9133,-1.914,-1.9173,-1.9198,-1.9223,-1.9257,-1.9269,-1.929,-1.9297,-1.9281,-1.9284,-1.9288,-1.9287,-1.9296,-1.9299,-1.9303,-1.9303,-1.9303,0,-1.8912,-1.8928,-1.8972,-1.8987,-1.9007,-1.9031,-1.9049,-1.9078,-1.9095,-1.913,-1.9141,-1.9169,-1.9192,-1.9231,-1.9256,-1.9282,-1.9289,-1.929,-1.9292,-1.9286,-1.9289,-1.9288,-1.9289,-1.9289,-1.9289,-1.9289,-1.9289,0,-1.8911,-1.8925,-1.8951,-1.8982,-1.9004,-1.9029,-1.9055,-1.9066,-1.9099,-1.9117,-1.9145,-1.9163,-1.9198,-1.9225,-1.9253,-1.9271,-1.9285,-1.9288,-1.929,-1.9284,-1.9275,-1.928,-1.9279,-1.9287,-1.9288,-1.9288,-1.9288,-1.9288,-1.8905,-1.8921,-1.8954,-1.8982,-1.9005,-1.9029,-1.9046,-1.907,-1.9094,-1.9127,-1.9142,-1.9169,-1.9197,-1.9237,-1.9254,-1.9275,-1.9279,-1.9282,-1.9283,-1.9284,-1.9282,-1.9272,-1.928,-1.928,-1.928,-1.928,-1.928,0,-1.8904,-1.8927,-1.8953,-1.899,-1.9012,-1.9026,-1.9055,-1.9072,-1.9097,-1.9123,-1.9146,-1.9177,-1.9203,-1.923,-1.9257,-1.9268,-1.9275,-1.9274,-1.9274,-1.9277,-1.9277,-1.9273,-1.9268,-1.9268,-1.9268,-1.9268,-1.9268,-1.9268,-1.8907,-1.8935,-1.8952,-1.8991,-1.9013,-1.9042,-1.9058,-1.9079,-1.91,-1.9135,-1.9157,-1.9176,-1.9202,-1.9231,-1.9255,-1.9262,-1.9271,-1.9268,-1.9277,-1.9277,-1.9277,-1.9278,-1.9274,-1.927,-1.927,-1.9276,-1.9276,-1.9276]}]]